GW2746 Weather Reports


Display with metric or nautical units.
time (UTC)temp
F
wind
direction
speed
MPH
gust
MPH
rain 1hr
in
rain 24hr
in
rain mn
in
humidity
%
barometer
mb
20260902204630 96 291 7.0 14.0 0.00 0.00 0.00 48 1010.2
20260902204126 96 225 8.0 11.0 0.00 0.00 0.00 49 1010.2
20260902203629 96 211 5.0 15.0 0.00 0.00 0.00 50 1010.3
20260902203128 96 219 9.0 15.0 0.00 0.00 0.00 49 1010.4
20260902202632 96 167 8.0 14.0 0.00 0.00 0.00 49 1010.4
20260902202133 96 232 3.0 11.0 0.00 0.00 0.00 49 1010.4
20260902201636 97 224 3.0 14.0 0.00 0.00 0.00 50 1010.4
20260902201133 96 206 4.0 14.0 0.00 0.00 0.00 50 1010.4
20260902200638 96 211 3.0 13.0 0.00 0.00 0.00 49 1010.5
20260902200153 96 210 5.0 13.0 0.00 0.00 0.00 49 1010.6
20260902195620 96 245 7.0 13.0 0.00 0.00 0.00 48 1010.6
20260902195118 96 160 3.0 13.0 0.00 0.00 0.00 50 1010.6
20260902194621 95 175 3.0 13.0 0.00 0.00 0.00 50 1010.6
20260902194118 95 189 6.0 12.0 0.00 0.00 0.00 50 1010.7
20260902193641 95 173 6.0 10.0 0.00 0.00 0.00 52 1010.7
20260902193118 95 171 2.0 9.0 0.00 0.00 0.00 53 1010.8
20260902192630 95 235 6.0 9.0 0.00 0.00 0.00 52 1010.8
20260902192130 94 293 2.0 8.0 0.00 0.00 0.00 52 1010.8
20260902191618 94 241 4.0 8.0 0.00 0.00 0.00 51 1010.8
20260902191132 94 192 3.0 9.0 0.00 0.00 0.00 51 1010.8
20260902190625 94 252 3.0 9.0 0.00 0.00 0.00 51 1010.9
20260902190120 93 280 5.0 9.0 0.00 0.00 0.00 51 1011.0
20260902185628 93 196 4.0 12.0 0.00 0.00 0.00 50 1011.1
20260902185125 93 221 7.0 12.0 0.00 0.00 0.00 50 1011.1
20260902184629 93 172 2.0 10.0 0.00 0.00 0.00 50 1011.2
20260902184125 93 239 5.0 9.0 0.00 0.00 0.00 51 1011.3
20260902183633 93 291 4.0 9.0 0.00 0.00 0.00 51 1011.4
20260902183131 92 191 3.0 13.0 0.00 0.00 0.00 52 1011.3
20260902182617 93 257 6.0 13.0 0.00 0.00 0.00 51 1011.4
20260902182153 92 115 6.0 13.0 0.00 0.00 0.00 52 1011.5
20260902181635 92 179 3.0 7.0 0.00 0.00 0.00 52 1011.5
20260902181133 92 272 4.0 9.0 0.00 0.00 0.00 51 1011.5
20260902180636 92 275 5.0 12.0 0.00 0.00 0.00 52 1011.7
20260902180121 92 243 6.0 12.0 0.00 0.00 0.00 52 1011.7
20260902175627 91 216 6.0 11.0 0.00 0.00 0.00 51 1011.8
20260902175127 92 260 6.0 10.0 0.00 0.00 0.00 51 1011.8
20260902174629 92 164 7.0 10.0 0.00 0.00 0.00 52 1011.8
20260902174127 91 290 5.0 10.0 0.00 0.00 0.00 53 1011.8
20260902173630 90 177 4.0 10.0 0.00 0.00 0.00 53 1011.8
20260902173128 90 186 5.0 8.0 0.00 0.00 0.00 52 1011.9
20260902172651 90 235 5.0 9.0 0.00 0.00 0.00 54 1012.0
20260902172149 90 238 4.0 9.0 0.00 0.00 0.00 55 1012.0
20260902171631 90 276 6.0 9.0 0.00 0.00 0.00 54 1012.1
20260902171129 89 262 4.0 9.0 0.00 0.00 0.00 55 1012.1
20260902170620 88 167 5.0 9.0 0.00 0.00 0.00 55 1012.1
20260902170139 88 239 2.0 11.0 0.00 0.00 0.00 57 1012.1
20260902165620 88 203 4.0 11.0 0.00 0.00 0.00 56 1012.2
20260902165118 87 177 3.0 6.0 0.00 0.00 0.00 57 1012.1
20260902164622 87 229 1.0 6.0 0.00 0.00 0.00 58 1012.1
20260902164125 87 231 1.0 7.0 0.00 0.00 0.00 57 1012.1
20260902163628 87 287 1.0 7.0 0.00 0.00 0.00 57 1012.1
20260902163124 87 168 4.0 7.0 0.00 0.00 0.00 56 1012.1
20260902162648 87 241 3.0 6.0 0.00 0.00 0.00 58 1012.1
20260902162123 88 96 2.0 7.0 0.00 0.00 0.00 60 1012.1
20260902161626 87 172 1.0 9.0 0.00 0.00 0.00 60 1012.1
20260902161126 86 219 3.0 7.0 0.00 0.00 0.00 60 1012.1
20260902160654 85 201 3.0 7.0 0.00 0.00 0.00 66 1012.2
20260902160132 84 173 3.0 7.0 0.00 0.00 0.00 65 1012.2
20260902155622 84 202 1.0 6.0 0.00 0.00 0.00 65 1012.2
20260902155124 83 158 1.0 5.0 0.00 0.00 0.00 65 1012.2
20260902154632 83 183 2.0 5.0 0.00 0.00 0.00 66 1012.2
20260902154134 84 156 2.0 7.0 0.00 0.00 0.00 64 1012.2
20260902153617 84 220 2.0 7.0 0.00 0.00 0.00 63 1012.3
20260902153119 84 235 2.0 6.0 0.00 0.00 0.00 63 1012.3
20260902152624 84 167 2.0 8.0 0.00 0.00 0.00 62 1012.2
20260902152123 84 146 5.0 10.0 0.00 0.00 0.00 62 1012.2
20260902151625 84 250 3.0 10.0 0.00 0.00 0.00 65 1012.2
20260902151145 83 167 2.0 6.0 0.00 0.00 0.00 66 1012.3
20260902150642 82 250 3.0 6.0 0.00 0.00 0.00 67 1012.2
20260902150120 81 168 3.0 6.0 0.00 0.00 0.00 68 1012.1
20260902145628 81 153 1.0 6.0 0.00 0.00 0.00 69 1012.2
20260902145126 80 206 1.0 6.0 0.00 0.00 0.00 70 1012.2
20260902144629 80 227 0.0 6.0 0.00 0.00 0.00 69 1012.2
20260902144128 80 179 3.0 6.0 0.00 0.00 0.00 69 1012.2
20260902143632 80 182 1.0 4.0 0.00 0.00 0.00 68 1012.3
20260902143132 80 206 1.0 4.0 0.00 0.00 0.00 68 1012.2
20260902142617 80 159 1.0 6.0 0.00 0.00 0.00 66 1012.1
20260902142140 80 239 2.0 6.0 0.00 0.00 0.00 65 1011.9
20260902141647 81 172 2.0 9.0 0.00 0.00 0.00 64 1012.1
20260902141124 81 184 2.0 9.0 0.00 0.00 0.00 64 1012.4
20260902140628 81 207 3.0 6.0 0.00 0.00 0.00 64 1012.4
20260902140131 82 183 4.0 6.0 0.00 0.00 0.00 64 1012.6
20260902135634 82 115 2.0 7.0 0.00 0.00 0.00 66 1012.3
20260902135133 81 142 0.0 8.0 0.00 0.00 0.00 66 1012.3
20260902134618 81 136 2.0 6.0 0.00 0.00 0.00 66 1012.3
20260902134137 80 200 3.0 6.0 0.00 0.00 0.00 66 1012.5
20260902133620 80 101 1.0 6.0 0.00 0.00 0.00 68 1012.4
20260902133121 79 140 2.0 7.0 0.00 0.00 0.00 69 1012.6
20260902132625 78 127 3.0 7.0 0.00 0.00 0.00 70 1012.5
20260902132143 78 144 2.0 7.0 0.00 0.00 0.00 72 1012.6
20260902131628 77 146 2.0 7.0 0.00 0.00 0.00 73 1012.5
20260902131130 76 127 1.0 5.0 0.00 0.00 0.00 75 1012.5
20260902130653 76 139 1.0 5.0 0.00 0.00 0.00 78 1012.6
20260902130129 75 52 0.0 2.0 0.00 0.00 0.00 79 1012.7
20260902125655 75 52 0.0 2.0 0.00 0.00 0.00 79 1012.8
20260902125130 75 52 0.0 0.0 0.00 0.00 0.00 81 1012.8
20260902124633 74 52 0.0 0.0 0.00 0.00 0.00 80 1012.8
20260902124130 74 52 0.0 3.0 0.00 0.00 0.00 81 1012.8
20260902123634 74 52 0.0 3.0 0.00 0.00 0.00 81 1012.8
20260902123128 74 52 1.0 3.0 0.00 0.00 0.00 82 1012.7
20260902122632 74 52 1.0 3.0 0.00 0.00 0.00 82 1012.7
20260902122129 74 52 1.0 3.0 0.00 0.00 0.00 82 1012.7
20260902121636 73 52 0.0 2.0 0.00 0.00 0.00 82 1012.6
20260902121132 73 52 1.0 2.0 0.00 0.00 0.00 82 1012.5
20260902120619 73 52 0.0 2.0 0.00 0.00 0.00 82 1012.4
20260902120117 73 52 0.0 3.0 0.00 0.00 0.00 82 1012.4
20260902115623 73 52 1.0 3.0 0.00 0.00 0.00 82 1012.4
20260902115122 74 52 2.0 3.0 0.00 0.00 0.00 83 1012.4
20260902114625 74 90 2.0 4.0 0.00 0.00 0.00 83 1012.4
20260902114122 74 84 1.0 4.0 0.00 0.00 0.00 83 1012.3
20260902113626 74 68 0.0 4.0 0.00 0.00 0.00 83 1012.4
20260902113145 74 42 2.0 4.0 0.00 0.00 0.00 83 1012.2
20260902112628 74 60 2.0 4.0 0.00 0.00 0.00 83 1012.3
20260902112126 74 68 2.0 8.0 0.00 0.00 0.00 83 1012.3
20260902111634 74 53 3.0 8.0 0.00 0.00 0.00 83 1012.4
20260902111156 75 40 4.0 8.0 0.00 0.00 0.00 82 1012.4
20260902110623 75 44 3.0 7.0 0.00 0.00 0.00 82 1012.4
20260902110144 75 58 2.0 7.0 0.00 0.00 0.00 81 1012.5
20260902105646 75 50 2.0 5.0 0.00 0.00 0.00 80 1012.4
20260902105121 75 55 1.0 4.0 0.00 0.00 0.00 80 1012.5
20260902104646 75 59 1.0 4.0 0.00 0.00 0.00 80 1012.4
20260902104147 75 58 2.0 3.0 0.00 0.00 0.00 80 1012.4
20260902103631 75 84 0.0 4.0 0.00 0.00 0.00 79 1012.4
20260902103128 76 84 2.0 4.0 0.00 0.00 0.00 78 1012.3
20260902102632 76 62 0.0 4.0 0.00 0.00 0.00 77 1012.4
20260902102132 76 101 1.0 4.0 0.00 0.00 0.00 76 1012.5
20260902101616 76 54 1.0 3.0 0.00 0.00 0.00 75 1012.5
20260902101135 77 46 1.0 3.0 0.00 0.00 0.00 74 1012.6
20260902100617 77 59 1.0 3.0 0.00 0.00 0.00 73 1012.5
20260902100119 77 25 0.0 2.0 0.00 0.00 0.00 72 1012.6
20260902095622 77 25 1.0 2.0 0.00 0.00 0.00 72 1012.5
20260902095141 77 56 1.0 2.0 0.00 0.00 0.00 71 1012.5
20260902094626 77 56 0.0 2.0 0.00 0.00 0.00 71 1012.6
20260902094126 78 56 1.0 4.0 0.00 0.00 0.00 71 1012.7
20260902093629 78 63 2.0 6.0 0.00 0.00 0.00 70 1012.7
20260902093126 78 90 2.0 4.0 0.00 0.00 0.00 70 1012.8
20260902092628 78 51 1.0 3.0 0.00 0.00 0.00 69 1012.8
20260902092126 78 250 1.0 2.0 0.00 0.00 0.00 69 1012.8
20260902091629 78 250 1.0 2.0 0.00 0.00 0.00 69 1012.7
20260902091126 79 250 0.0 2.0 0.00 0.00 0.00 67 1012.6
20260902090614 79 250 0.0 2.0 0.00 0.00 0.00 67 1012.5
20260902090157 79 250 0.0 3.0 0.00 0.00 0.00 67 1012.5
20260902085622 79 250 2.0 3.0 0.00 0.00 0.00 67 1012.6
20260902085119 78 266 1.0 4.0 0.00 0.00 0.00 68 1012.7
20260902084644 78 279 1.0 4.0 0.00 0.00 0.00 68 1012.9
20260902084122 78 142 0.0 4.0 0.00 0.00 0.00 68 1012.9
20260902083645 78 67 1.0 3.0 0.00 0.00 0.00 68 1012.9
20260902083122 79 14 2.0 3.0 0.00 0.00 0.00 68 1012.8
20260902082626 79 210 1.0 4.0 0.00 0.00 0.00 68 1012.8
20260902082123 79 60 0.0 4.0 0.00 0.00 0.00 67 1012.8
20260902081631 79 350 2.0 4.0 0.00 0.00 0.00 66 1012.9
20260902081131 79 36 1.0 3.0 0.00 0.00 0.00 66 1012.9
20260902080635 79 57 1.0 7.0 0.00 0.00 0.00 66 1012.7
20260902080142 79 98 4.0 7.0 0.00 0.00 0.00 65 1012.9
20260902075628 79 336 2.0 4.0 0.00 0.00 0.00 65 1012.6
20260902075127 79 209 1.0 4.0 0.00 0.00 0.00 64 1012.1
20260902074634 79 226 1.0 4.0 0.00 0.00 0.00 64 1012.0
20260902074132 80 213 1.0 5.0 0.00 0.00 0.00 64 1012.0
20260902073617 80 240 2.0 5.0 0.00 0.00 0.00 64 1011.9
20260902073134 80 230 0.0 4.0 0.00 0.00 0.00 64 1011.9
20260902072640 80 196 1.0 6.0 0.00 0.00 0.00 64 1011.9
20260902072117 80 279 1.0 6.0 0.00 0.00 0.00 64 1011.9
20260902071621 80 185 1.0 5.0 0.00 0.00 0.00 64 1011.9
20260902071155 80 194 1.0 5.0 0.00 0.00 0.00 64 1011.9
20260902070618 80 308 0.0 7.0 0.00 0.00 0.00 63 1011.9
20260902070118 80 226 2.0 7.0 0.00 0.00 0.00 63 1011.8
20260902065643 80 179 2.0 8.0 0.00 0.00 0.00 63 1011.8
20260902065120 80 164 2.0 8.0 0.00 0.00 0.00 63 1011.9
20260902064623 80 148 2.0 5.0 0.00 0.00 0.00 63 1011.9
20260902064121 81 171 2.0 5.0 0.00 0.00 0.00 63 1011.9
20260902063627 81 218 2.0 6.0 0.00 0.00 0.00 63 1012.0
20260902063130 81 181 3.0 6.0 0.00 0.00 0.00 62 1011.9
20260902062633 81 173 2.0 6.0 0.00 0.00 0.00 62 1011.8
20260902062129 81 184 2.0 9.0 0.00 0.00 0.00 62 1011.7
20260902061617 82 200 2.0 9.0 0.00 0.00 0.00 62 1011.6
20260902061115 82 196 3.0 7.0 0.00 0.00 0.00 62 1011.5
20260902060629 82 191 1.0 8.0 0.00 0.00 0.00 62 1011.5
20260902060147 82 233 2.0 9.0 0.00 0.00 0.00 61 1011.4
20260902055629 82 185 3.0 9.0 0.00 0.00 0.00 61 1011.4
20260902055131 83 195 3.0 7.0 0.00 0.00 0.00 61 1011.3
20260902054620 83 165 3.0 11.0 0.00 0.00 0.00 61 1011.4
20260902054140 83 206 6.0 11.0 0.00 0.00 0.00 60 1011.4
20260902053624 83 273 0.0 9.0 0.00 0.00 0.00 60 1011.5
20260902053125 83 262 5.0 9.0 0.00 0.00 0.00 60 1011.6
20260902052648 83 207 3.0 9.0 0.00 0.00 0.00 60 1011.6
20260902052148 84 194 2.0 5.0 0.00 0.00 0.00 60 1011.7
20260902051630 84 164 2.0 7.0 0.00 0.00 0.00 59 1011.6
20260902051148 84 241 3.0 8.0 0.00 0.00 0.00 59 1011.7
20260902050617 84 232 2.0 7.0 0.00 0.00 0.00 59 1011.8
20260902050132 84 258 3.0 7.0 0.00 0.00 0.00 60 1011.7
20260902045628 84 184 3.0 7.0 0.00 0.00 0.00 59 1011.7
20260902045127 84 153 2.0 8.0 0.00 0.00 0.00 60 1011.6
20260902044632 84 226 1.0 8.0 0.00 0.00 0.00 60 1011.7
20260902044130 84 173 2.0 8.0 0.00 0.00 0.00 60 1011.8
20260902043634 84 192 2.0 8.0 0.00 0.00 0.00 60 1011.8
20260902043131 84 223 1.0 6.0 0.00 0.00 0.00 61 1011.7
20260902042635 84 226 2.0 6.0 0.00 0.00 0.00 61 1011.7
20260902042132 85 208 3.0 6.0 0.00 0.00 0.00 61 1011.8
20260902041635 85 155 3.0 6.0 0.00 0.00 0.00 61 1011.7
20260902041133 85 197 2.0 10.0 0.00 0.00 0.00 61 1011.7
20260902040620 85 259 2.0 10.0 0.00 0.00 0.00 61 1011.7
20260902040119 85 183 2.0 9.0 0.00 0.00 0.00 61 1011.8
20260902035643 85 188 1.0 5.0 0.00 0.00 0.00 61 1011.8
20260902035120 86 219 1.0 6.0 0.00 0.00 0.00 61 1011.8
20260902034624 86 195 1.0 6.0 0.00 0.00 0.00 61 1011.8
20260902034122 86 181 3.0 6.0 0.00 0.00 0.00 61 1011.9
20260902033646 86 191 0.0 6.0 0.00 0.00 0.00 61 1011.8
20260902033126 86 239 1.0 5.0 0.00 0.00 0.00 60 1011.7
20260902032632 86 272 3.0 8.0 0.00 0.00 0.00 60 1011.7
20260902032113 87 152 2.0 8.0 0.00 0.00 0.00 60 1011.7
20260902031621 87 96 1.0 6.0 0.00 0.00 0.00 60 1011.7
20260902031133 87 202 2.0 6.0 0.00 0.00 0.00 60 1011.7
20260902030636 87 113 1.0 5.0 0.00 0.00 0.00 60 1011.6
20260902030132 87 175 0.0 5.0 0.00 0.00 0.00 59 1011.6
20260902025636 87 145 1.0 6.0 0.00 0.00 0.00 59 1011.6
20260902025135 87 123 0.0 6.0 0.00 0.00 0.00 59 1011.5
20260902024620 87 9 1.0 4.0 0.00 0.00 0.00 59 1011.4
20260902024120 87 161 2.0 4.0 0.00 0.00 0.00 59 1011.5
20260902023625 88 188 1.0 5.0 0.00 0.00 0.00 59 1011.3
20260902023143 88 198 3.0 5.0 0.00 0.00 0.00 59 1011.3
20260902022626 88 161 1.0 5.0 0.00 0.00 0.00 59 1011.2
20260902022147 88 172 1.0 5.0 0.00 0.00 0.00 59 1011.1
20260902021632 88 133 1.0 5.0 0.00 0.00 0.00 59 1011.1
20260902021129 88 183 1.0 5.0 0.00 0.00 0.00 59 1011.0
20260902020631 88 175 2.0 4.0 0.00 0.00 0.00 59 1011.0
20260902020133 88 153 1.0 5.0 0.00 0.00 0.00 59 1010.9
20260902015636 89 180 0.0 5.0 0.00 0.00 0.00 59 1010.7
20260902015134 89 133 2.0 4.0 0.00 0.00 0.00 59 1010.7
20260902014618 89 185 0.0 2.0 0.00 0.00 0.00 59 1010.6
20260902014135 89 197 1.0 2.0 0.00 0.00 0.00 59 1010.6
20260902013639 89 185 0.0 3.0 0.00 0.00 0.00 59 1010.5
20260902013120 90 206 1.0 4.0 0.00 0.00 0.00 58 1010.4
20260902012622 90 167 1.0 6.0 0.00 0.00 0.00 58 1010.4
20260902012120 90 162 1.0 6.0 0.00 0.00 0.00 58 1010.3
20260902011626 90 188 0.0 5.0 0.00 0.00 0.00 58 1010.3
20260902011126 90 182 1.0 5.0 0.00 0.00 0.00 58 1010.4
20260902010626 91 208 1.0 4.0 0.00 0.00 0.00 57 1010.3
20260902010130 91 183 0.0 2.0 0.00 0.00 0.00 57 1010.3
20260902005636 91 123 0.0 4.0 0.00 0.00 0.00 57 1010.3
20260902005114 92 188 1.0 4.0 0.00 0.00 0.00 56 1010.3
20260902004623 92 133 0.0 4.0 0.00 0.00 0.00 56 1010.3
20260902004125 92 177 1.0 4.0 0.00 0.00 0.00 55 1010.2
20260902003627 93 178 0.0 5.0 0.00 0.00 0.00 54 1010.2
20260902003146 93 178 0.0 7.0 0.00 0.00 0.00 53 1010.2
20260902002628 94 194 1.0 7.0 0.00 0.00 0.00 53 1010.2
20260902002124 94 219 3.0 7.0 0.00 0.00 0.00 51 1010.2
20260902001631 94 125 4.0 7.0 0.00 0.00 0.00 51 1010.3
20260902001129 95 235 0.0 10.0 0.00 0.00 0.00 52 1010.2
20260902000627 95 175 4.0 10.0 0.00 0.00 0.00 50 1010.3
20260902000126 95 225 1.0 9.0 0.00 0.00 0.00 50 1010.3
20260901235629 95 189 2.0 6.0 0.00 0.00 0.00 50 1010.4
20260901235126 95 202 3.0 9.0 0.00 0.00 0.00 50 1010.3
20260901234633 96 249 5.0 9.0 0.00 0.00 0.00 49 1010.4
20260901234134 96 255 2.0 6.0 0.00 0.00 0.00 50 1010.5
20260901233618 96 272 3.0 7.0 0.00 0.00 0.00 50 1010.6
20260901233135 96 263 3.0 7.0 0.00 0.00 0.00 49 1010.6
20260901232641 96 266 2.0 9.0 0.00 0.00 0.00 50 1010.6
20260901232118 96 229 1.0 10.0 0.00 0.00 0.00 50 1010.6
20260901231621 96 256 5.0 11.0 0.00 0.00 0.00 49 1010.6
20260901231138 96 243 5.0 14.0 0.00 0.00 0.00 49 1010.6
20260901230646 96 239 3.0 14.0 0.00 0.00 0.00 49 1010.7
20260901230125 96 189 4.0 11.0 0.00 0.00 0.00 49 1010.7
20260901225651 96 160 2.0 8.0 0.00 0.00 0.00 50 1010.7
20260901225127 96 208 3.0 8.0 0.00 0.00 0.00 49 1010.8
20260901224631 96 239 3.0 8.0 0.00 0.00 0.00 50 1010.8
20260901224149 96 238 3.0 8.0 0.00 0.00 0.00 49 1010.9
20260901223632 96 156 5.0 10.0 0.00 0.00 0.00 50 1010.9
20260901223131 96 221 5.0 11.0 0.00 0.00 0.00 49 1010.8
20260901222615 96 246 5.0 13.0 0.00 0.00 0.00 49 1010.8
20260901222136 96 193 6.0 13.0 0.00 0.00 0.00 49 1010.9
20260901221622 96 282 4.0 13.0 0.00 0.00 0.00 50 1010.9
20260901221118 96 244 7.0 16.0 0.00 0.00 0.00 49 1011.0
20260901220621 96 231 5.0 16.0 0.00 0.00 0.00 50 1011.1
20260901220119 96 256 4.0 11.0 0.00 0.00 0.00 52 1011.1
20260901215623 96 281 6.0 11.0 0.00 0.00 0.00 52 1011.1
20260901215123 96 215 5.0 14.0 0.00 0.00 0.00 52 1011.2
20260901214627 96 211 6.0 14.0 0.00 0.00 0.00 52 1011.1
20260901214128 96 254 5.0 14.0 0.00 0.00 0.00 52 1011.2
20260901213632 96 212 3.0 14.0 0.00 0.00 0.00 52 1011.2
20260901213134 96 202 7.0 10.0 0.00 0.00 0.00 51 1011.3
20260901212622 96 255 2.0 12.0 0.00 0.00 0.00 52 1011.3
20260901212144 96 241 4.0 12.0 0.00 0.00 0.00 51 1011.3
20260901211634 96 216 5.0 11.0 0.00 0.00 0.00 52 1011.4
20260901211133 96 293 4.0 12.0 0.00 0.00 0.00 52 1011.4
20260901210636 95 254 4.0 13.0 0.00 0.00 0.00 52 1011.4
20260901210136 96 172 6.0 13.0 0.00 0.00 0.00 51 1011.5
20260901205622 96 208 4.0 13.0 0.00 0.00 0.00 53 1011.5
20260901205141 95 241 4.0 13.0 0.00 0.00 0.00 52 1011.5